Temp
64 64 64 64 64 63 63 62 62 62 63 63 63 63 62 62 62 62 62 63 63 64 64 64 64 64 66 68 65 75 72 73 73 71 67 66 65 63 58 58 57 54 53 56 53 52 53
63 63 63 64 63 63 63 63 62 62 61 62 62 62 62 61 62 62 62 62 63 63 63 63 64 63 67 63 71 75 71 71 69 69 66 65 63 64 60 56 53 53 54 54 54 54 55
63 63 63 63 63 63 63 63 62 62 62 62 62 61 61 61 61 62 62 63 63 63 62 63 64 69 70 63 71 73 72 65 68 66 64 64 65 62 61 54 57 55 50 51 53 54 51
63 63 63 63 63 63 63 62 62 62 62 62 61 61 61 60 61 61 61 62 62 62 62 64 65 70 61 69 71 72 71 70 70 69 65 64 64 61 58 57 56 51 51 45 50 52 49
63 62 62 63 63 63 62 62 61 61 61 61 61 60 60 60 60 60 60 61 61 63 64 66 67 67 61 68 68 70 68 64 66 67 64 70 63 58 54 52 49 50 42 47 49 51 49
63 62 62 62 62 62 62 62 61 61 60 60 60 60 59 60 60 60 60 61 64 63 66 75 74 63 66 63 65 66 67 64 63 63 62 60 59 54 52 47 34 40 40 45 44 47 48
61 62 62 62 62 62 62 61 61 61 60 60 59 59 59 59 59 60 61 65 65 63 65 57 60 62 63 66 65 65 65 63 64 62 54 56 50 41 44 45 45 43 40 39 48 48 43
61 61 61 61 61 61 61 61 61 61 60 59 59 58 59 59 59 61 61 66 58 58 57 61 62 63 64 61 60 62 65 60 61 53 57 51 43 47 49 47 43 43 39 39 46 48 43
61 61 61 61 60 60 60 60 60 60 59 58 58 58 58 59 61 63 63 58 62 63 59 59 61 62 60 61 57 57 59 57 54 52 49 45 45 50 48 45 43 42 37 35 35 41 44
61 61 61 61 60 60 60 60 60 60 58 58 57 58 58 59 61 64 59 63 63 61 54 56 58 60 62 60 54 60 59 54 54 47 47 45 47 47 43 45 43 33 41 40 38 30 24
60 60 60 60 60 59 59 59 59 59 58 57 57 58 58 59 63 61 59 63 62 58 37 57 58 64 61 57 55 55 57 56 48 48 45 40 42 41 42 41 42 39 41 38 33 27 23
60 60 60 60 59 59 59 59 59 59 58 57 57 57 58 63 62 59 61 60 58 50 36 53 57 55 56 56 56 57 56 57 53 48 49 40 44 42 39 43 42 44 39 38 33 30 23
60 60 60 59 59 58 58 58 58 58 58 57 57 57 62 65 58 60 60 58 49 39 55 51 50 53 51 50 52 52 50 40 38 38 36 39 40 39 42 34 39 36 32 27 26 26 27
60 60 59 59 58 58 58 58 58 58 57 56 56 56 59 62 61 60 58 55 40 52 50 51 50 51 47 49 48 49 45 42 40 39 35 33 32 36 41 32 30 32 30 26 18 23 26
60 60 59 58 58 58 58 58 58 57 56 56 55 61 62 60 61 58 56 44 44 45 49 49 50 45 47 47 43 47 43 38 36 36 35 31 36 36 37 39 32 31 29 31 23 22 21
60 59 58 58 57 57 57 57 57 57 56 56 60 62 60 61 60 56 52 46 45 48 50 49 40 45 40 44 42 43 43 38 34 37 35 33 29 37 33 36 32 32 31 26 26 21 24
60 58 57 57 56 56 56 56 57 57 57 57 58 57 59 61 57 54 43 42 45 49 48 45 44 39 40 39 40 41 40 38 40 39 38 32 31 30 32 29 27 26 24 26 28 25 20
58 57 56 56 55 55 55 56 56 56 56 57 57 53 60 59 52 48 44 43 46 46 48 46 43 38 38 42 37 41 40 41 42 40 33 29 33 27 33 23 25 27 34 29 27 25 29
56 56 56 55 55 54 55 55 56 56 56 54 53 54 60 57 45 43 43 47 47 45 45 44 43 44 42 40 34 41 41 41 43 40 32 32 29 23 28 26 26 22 25 28 31 27 27
56 55 55 55 54 54 54 54 55 56 56 54 53 47 54 53 49 42 39 45 43 44 45 46 43 43 41 40 45 36 40 39 42 41 44 41 30 29 28 31 31 25 28 30 31 27 29
55 55 55 54 54 54 54 53 54 55 56 55 50 43 43 41 44 44 42 37 41 41 44 44 40 43 37 32 38 39 43 40 41 44 39 34 23 32 35 37 35 34 36 34 30 32 29
54 54 54 54 54 54 53 53 53 54 55 55 47 44 45 45 45 44 41 39 41 43 40 41 38 45 44 34 41 38 44 42 42 39 38 35 30 29 31 36 34 30 34 34 33 34 34
54 54 54 54 53 53 53 53 53 53 56 52 52 51 47 44 45 40 43 43 40 44 47 49 46 42 40 43 43 44 43 44 44 38 34 29 28 27 28 34 30 26 28 30 25 23 25
54 54 53 53 53 53 53 53 53 53 53 52 48 48 41 38 40 43 46 46 44 46 42 48 47 44 43 47 47 47 45 44 44 43 41 28 27 28 26 28 21 25 27 28 27 23 26
53 53 53 53 53 53 53 53 53 53 53 48 47 46 41 37 41 43 44 43 44 46 44 45 44 42 45 42 33 31 34 31 33 30 33 36 29 26 24 25 29 30 27 24 23 20 28
53 53 53 53 52 52 52 53 52 52 52 49 45 48 42 35 38 44 39 41 36 35 37 41 42 42 40 32 30 23 22 29 27 23 29 30 29 27 25 21 15 23 30 33 28 16 31
52 52 52 52 52 52 52 52 52 52 52 48 44 46 42 33 40 41 35 35 41 35 31 32 33 33 36 28 26 25 25 35 23 24 17 23 24 22 23 22 23 28 31 31 19 22 30
52 52 52 52 52 52 52 52 52 52 51 48 43 46 39 34 37 41 41 34 34 34 27 30 30 29 27 23 25 24 22 24 21 27 21 19 19 17 21 16 19 31 32 24 29 32 30
51 51 51 51 51 51 52 51 51 52 51 50 40 46 46 37 35 40 40 40 39 38 35 32 29 28 30 31 28 30 24 26 21 16 27 17 25 20 25 23 32 33 31 34 33 29 28
MSLP
1019.83 1019.60 1019.47 1019.28 1019.01 1018.66 1018.34 1018.05 1017.77 1017.26 1016.79 1016.60 1016.38 1016.29 1016.18 1016.05 1015.77 1015.40 1015.03 1014.82 1014.72 1014.48 1014.36 1014.25 1014.06 1013.87 1013.83 1013.35 1013.62 1013.28 1013.16 1012.77 1012.42 1012.17 1012.02 1011.75 1011.38 1011.11 1011.11 1011.56 1012.06 1012.42 1013.12 1013.63 1014.06 1014.23 1014.20
1020.03 1019.89 1019.65 1019.29 1018.99 1018.66 1018.33 1017.85 1017.54 1017.21 1016.99 1016.72 1016.61 1016.46 1016.33 1015.95 1015.59 1015.19 1014.92 1014.72 1014.45 1014.31 1014.26 1014.10 1013.88 1013.83 1013.62 1013.41 1013.51 1013.32 1013.12 1012.83 1012.84 1012.35 1012.27 1012.14 1012.11 1011.80 1011.70 1012.08 1012.46 1012.96 1013.25 1013.60 1014.02 1014.12 1014.18
1020.18 1019.94 1019.71 1019.51 1019.02 1018.63 1018.22 1017.88 1017.61 1017.28 1017.10 1016.86 1016.71 1016.57 1016.21 1015.87 1015.35 1014.98 1014.73 1014.44 1014.22 1014.15 1014.10 1013.85 1013.71 1013.50 1013.18 1013.88 1013.47 1013.26 1012.97 1013.17 1013.02 1012.92 1012.56 1012.68 1012.50 1012.17 1012.10 1012.54 1012.90 1013.06 1013.43 1013.54 1013.76 1014.00 1014.28
1020.41 1020.13 1019.89 1019.47 1019.05 1018.67 1018.33 1018.04 1017.71 1017.44 1017.21 1017.02 1016.72 1016.48 1016.13 1015.65 1015.13 1014.80 1014.52 1014.28 1014.09 1014.00 1013.80 1013.60 1013.53 1013.33 1013.66 1013.71 1013.45 1013.24 1013.14 1012.87 1012.89 1012.90 1012.90 1012.90 1012.69 1012.57 1012.62 1013.00 1013.05 1013.21 1013.18 1013.51 1013.60 1013.96 1014.47
1020.46 1020.29 1019.93 1019.60 1019.29 1018.91 1018.54 1018.15 1017.92 1017.70 1017.36 1016.99 1016.67 1016.37 1015.84 1015.36 1014.92 1014.57 1014.31 1014.09 1013.91 1013.79 1013.59 1013.43 1013.49 1013.08 1013.56 1013.74 1013.64 1013.47 1013.46 1013.40 1013.08 1012.88 1012.87 1012.85 1012.72 1012.77 1013.13 1013.09 1013.21 1013.34 1013.65 1013.85 1014.00 1014.18 1014.56
1020.64 1020.53 1020.15 1019.87 1019.44 1019.02 1018.71 1018.44 1018.23 1017.84 1017.36 1017.00 1016.67 1016.16 1015.67 1015.15 1014.73 1014.37 1014.10 1013.95 1013.66 1013.62 1013.38 1013.15 1012.89 1013.29 1013.51 1013.96 1013.81 1013.73 1013.53 1013.55 1013.11 1012.69 1012.68 1012.76 1012.70 1012.98 1013.55 1014.00 1014.89 1014.87 1014.89 1014.82 1015.03 1014.83 1014.73
1020.89 1020.68 1020.36 1020.00 1019.64 1019.30 1019.00 1018.72 1018.40 1017.90 1017.37 1017.00 1016.53 1016.05 1015.56 1015.06 1014.73 1014.33 1014.02 1013.96 1014.27 1014.08 1013.69 1014.06 1013.93 1013.78 1013.89 1014.04 1013.97 1013.76 1013.64 1013.34 1012.96 1012.72 1012.70 1012.76 1013.43 1014.38 1015.20 1015.63 1015.84 1016.00 1016.11 1016.08 1015.38 1015.62 1015.43
1021.06 1020.81 1020.57 1020.29 1019.96 1019.62 1019.29 1018.93 1018.47 1017.89 1017.35 1016.86 1016.46 1016.00 1015.45 1015.01 1014.64 1014.28 1014.38 1014.23 1015.35 1015.69 1015.09 1014.46 1014.24 1014.13 1014.34 1014.50 1014.12 1013.83 1013.52 1013.50 1012.85 1012.96 1012.90 1013.51 1014.47 1015.68 1016.09 1016.31 1016.48 1016.59 1016.69 1016.56 1015.99 1016.01 1016.59
1021.27 1021.08 1020.82 1020.51 1020.20 1019.89 1019.46 1018.96 1018.49 1017.91 1017.36 1016.91 1016.37 1015.85 1015.33 1014.92 1014.53 1014.35 1014.66 1015.72 1015.81 1015.54 1015.15 1014.65 1014.36 1014.23 1014.49 1014.59 1014.49 1014.60 1014.37 1013.95 1013.67 1013.52 1014.00 1014.56 1016.01 1016.45 1016.67 1016.75 1017.03 1017.18 1017.46 1017.81 1018.19 1017.35 1016.43
1021.55 1021.38 1021.10 1020.81 1020.42 1019.98 1019.54 1019.09 1018.50 1017.92 1017.41 1016.88 1016.33 1015.83 1015.34 1014.76 1015.04 1014.77 1015.30 1015.84 1015.71 1015.64 1015.01 1014.69 1014.39 1014.46 1014.53 1014.42 1014.80 1014.92 1014.90 1014.86 1014.18 1014.53 1014.85 1015.70 1016.65 1016.94 1017.22 1017.41 1017.89 1018.16 1018.30 1018.68 1018.98 1019.14 1018.81
1021.84 1021.64 1021.29 1020.93 1020.52 1020.14 1019.71 1019.19 1018.54 1017.92 1017.40 1016.88 1016.36 1015.92 1015.39 1014.89 1015.06 1015.32 1016.19 1015.85 1015.66 1015.60 1015.15 1014.60 1014.33 1014.50 1014.37 1014.57 1014.93 1015.05 1015.15 1014.71 1014.99 1015.25 1015.75 1016.70 1017.26 1017.70 1018.05 1018.49 1018.70 1018.73 1018.84 1019.14 1019.53 1020.09 1020.12
1022.13 1021.83 1021.50 1021.14 1020.81 1020.33 1019.79 1019.19 1018.61 1017.98 1017.42 1016.95 1016.47 1016.02 1015.25 1015.04 1015.24 1016.16 1016.01 1015.88 1015.76 1015.58 1014.70 1014.32 1014.17 1014.29 1014.27 1014.26 1014.53 1014.69 1015.00 1015.06 1015.53 1015.73 1016.19 1017.47 1018.25 1018.71 1019.18 1019.26 1019.41 1019.30 1019.05 1018.96 1019.67 1020.13 1020.09
1022.35 1022.06 1021.79 1021.41 1021.00 1020.49 1019.90 1019.25 1018.67 1018.08 1017.50 1016.96 1016.52 1016.21 1015.45 1015.38 1016.04 1016.10 1015.98 1015.72 1015.86 1015.03 1014.41 1014.52 1014.45 1014.38 1014.46 1014.42 1014.51 1014.79 1015.11 1015.72 1016.51 1016.81 1017.30 1018.18 1018.80 1019.54 1019.87 1019.96 1019.93 1019.87 1020.43 1020.52 1020.68 1020.38 1019.46
1022.55 1022.34 1021.98 1021.63 1021.19 1020.66 1020.12 1019.48 1018.83 1018.17 1017.52 1016.93 1016.49 1016.36 1016.17 1016.14 1016.13 1016.00 1015.84 1015.78 1015.88 1014.75 1014.58 1014.81 1014.80 1014.61 1014.74 1014.87 1014.84 1015.01 1015.49 1016.50 1017.20 1017.65 1018.26 1018.87 1019.45 1020.29 1020.72 1021.23 1021.52 1021.29 1021.65 1021.90 1022.03 1021.19 1019.89
1022.68 1022.52 1022.23 1021.85 1021.38 1020.94 1020.41 1019.73 1018.96 1018.19 1017.51 1016.88 1016.54 1016.10 1015.86 1016.15 1016.17 1016.09 1016.04 1016.15 1015.92 1015.88 1015.77 1015.43 1015.00 1014.95 1014.96 1015.22 1015.57 1015.18 1015.76 1017.06 1017.97 1018.57 1019.23 1019.47 1020.24 1021.26 1021.59 1021.81 1022.51 1022.34 1022.25 1022.34 1022.45 1021.79 1021.01
1022.83 1022.65 1022.44 1022.09 1021.67 1021.26 1020.70 1019.99 1019.16 1018.19 1017.45 1016.94 1016.51 1015.84 1016.02 1016.07 1016.09 1016.14 1016.25 1016.39 1016.60 1016.80 1016.57 1016.31 1015.91 1015.58 1015.42 1015.43 1015.74 1015.76 1016.19 1017.61 1018.77 1019.46 1019.88 1020.19 1020.95 1021.32 1022.31 1022.71 1023.13 1023.04 1023.22 1023.18 1023.12 1022.35 1020.75
1022.96 1022.91 1022.75 1022.49 1022.02 1021.54 1020.97 1020.26 1019.35 1018.27 1017.23 1016.74 1016.60 1016.02 1016.15 1016.04 1016.20 1016.22 1016.85 1017.16 1017.35 1017.61 1017.57 1017.40 1016.88 1016.46 1016.20 1016.09 1016.20 1016.32 1016.68 1018.09 1018.72 1019.78 1020.19 1020.91 1021.79 1022.29 1022.85 1023.27 1023.31 1023.95 1023.75 1023.62 1023.37 1022.53 1021.30
1023.41 1023.31 1023.14 1022.81 1022.40 1021.90 1021.28 1020.59 1019.64 1018.58 1017.28 1016.48 1016.56 1016.38 1015.95 1015.93 1016.49 1016.71 1017.50 1017.86 1018.25 1018.05 1018.09 1017.96 1017.81 1017.54 1017.18 1016.91 1016.92 1016.79 1017.10 1017.83 1018.83 1019.68 1020.70 1021.58 1022.33 1022.81 1022.72 1023.34 1023.61 1023.48 1023.33 1023.16 1023.10 1022.31 1021.30
1023.84 1023.72 1023.51 1023.17 1022.86 1022.34 1021.61 1020.82 1019.89 1019.00 1018.47 1018.10 1017.40 1016.56 1015.82 1015.80 1016.76 1017.42 1017.97 1018.20 1018.32 1018.42 1018.32 1018.35 1018.12 1017.96 1017.89 1017.68 1017.55 1017.12 1017.51 1018.37 1019.05 1019.80 1020.50 1021.43 1022.13 1022.47 1022.44 1023.51 1023.49 1023.26 1023.06 1022.83 1022.61 1022.04 1020.55
1024.35 1024.25 1023.91 1023.72 1023.31 1022.81 1022.05 1021.13 1020.05 1019.17 1018.58 1018.44 1017.84 1017.45 1016.68 1016.94 1017.81 1018.08 1018.40 1018.18 1018.53 1018.74 1018.65 1018.66 1018.55 1018.55 1018.47 1018.12 1017.76 1017.74 1018.05 1018.73 1019.35 1020.03 1020.62 1021.12 1021.60 1021.45 1021.08 1020.65 1021.02 1022.19 1022.17 1022.01 1021.82 1021.29 1018.96
1024.81 1024.64 1024.39 1024.29 1023.85 1023.34 1022.61 1021.63 1020.55 1019.37 1018.36 1018.43 1018.77 1019.58 1019.93 1018.99 1018.78 1018.93 1018.77 1018.80 1018.65 1018.82 1018.98 1018.88 1018.77 1018.78 1018.80 1018.75 1018.09 1018.08 1018.19 1018.86 1019.56 1020.10 1020.87 1021.44 1021.63 1021.09 1020.38 1020.12 1020.29 1020.42 1020.74 1020.73 1020.74 1019.87 1019.48
1025.30 1025.19 1025.07 1024.83 1024.48 1023.96 1023.19 1022.36 1021.41 1020.04 1018.65 1018.91 1020.04 1020.74 1020.60 1020.17 1019.71 1019.40 1019.19 1018.88 1018.77 1018.70 1019.01 1018.87 1019.06 1018.78 1018.96 1019.09 1018.57 1018.43 1018.45 1018.64 1019.13 1020.37 1020.97 1021.48 1021.13 1020.86 1019.83 1019.82 1019.72 1019.48 1019.85 1019.65 1019.53 1019.60 1019.41
1025.78 1025.76 1025.72 1025.51 1025.07 1024.60 1023.89 1023.25 1022.42 1021.31 1019.76 1020.38 1020.97 1021.30 1021.34 1020.84 1020.13 1020.01 1019.39 1019.14 1019.18 1019.17 1018.85 1018.66 1018.89 1019.16 1019.23 1019.10 1019.05 1018.79 1018.71 1018.75 1018.81 1019.48 1020.49 1021.58 1021.83 1021.54 1019.13 1019.50 1019.60 1019.15 1018.64 1018.93 1019.44 1019.60 1020.06
1026.32 1026.41 1026.36 1026.05 1025.66 1025.27 1024.60 1024.13 1023.56 1022.68 1022.00 1021.76 1022.69 1022.47 1022.23 1021.56 1020.97 1020.43 1019.89 1019.73 1019.65 1019.47 1019.38 1019.18 1019.28 1019.56 1019.91 1019.45 1019.00 1018.40 1018.10 1017.92 1018.18 1018.47 1019.44 1020.81 1021.74 1021.74 1020.16 1020.10 1019.27 1018.53 1018.61 1019.04 1020.01 1020.91 1021.01
1027.02 1026.92 1026.88 1026.65 1026.24 1025.84 1025.35 1024.81 1024.55 1023.85 1023.37 1023.45 1023.74 1023.32 1023.10 1022.69 1021.77 1021.05 1020.68 1020.48 1020.26 1019.96 1019.84 1019.70 1019.87 1020.39 1020.21 1019.97 1019.67 1018.84 1017.82 1017.77 1017.93 1019.30 1019.81 1020.19 1021.45 1021.54 1020.95 1019.91 1018.58 1018.49 1019.33 1019.92 1020.84 1022.00 1022.04
1027.46 1027.33 1027.67 1027.15 1026.68 1026.47 1026.03 1025.46 1025.27 1024.87 1024.35 1024.11 1024.70 1024.51 1024.21 1023.90 1022.77 1022.17 1021.82 1021.34 1021.19 1021.10 1020.91 1020.74 1020.90 1020.86 1020.71 1020.73 1020.67 1020.28 1019.18 1018.35 1018.95 1020.30 1021.18 1021.49 1021.56 1021.72 1021.12 1020.35 1019.44 1019.52 1020.02 1020.11 1021.00 1022.33 1022.63
1028.08 1028.21 1028.00 1027.65 1027.31 1026.97 1026.56 1026.11 1025.92 1025.54 1025.24 1024.98 1025.43 1025.31 1025.05 1024.89 1023.66 1023.25 1023.02 1023.00 1022.64 1022.63 1022.52 1022.26 1022.39 1021.77 1021.66 1021.58 1021.46 1020.71 1019.53 1019.13 1019.36 1019.94 1021.23 1021.98 1022.17 1021.77 1021.21 1020.62 1019.70 1019.94 1020.08 1020.30 1021.68 1022.92 1022.87
1028.63 1028.67 1028.48 1028.29 1027.94 1027.39 1027.06 1026.83 1026.47 1026.10 1025.89 1025.69 1026.01 1025.79 1025.95 1025.60 1024.66 1024.40 1024.45 1024.32 1024.05 1023.86 1023.96 1023.57 1023.46 1023.04 1022.94 1022.86 1022.22 1021.24 1020.50 1020.35 1020.37 1020.15 1020.48 1021.09 1021.25 1021.43 1020.86 1020.59 1020.47 1020.37 1020.38 1021.13 1022.44 1022.77 1023.08
1029.29 1029.09 1028.78 1028.67 1028.39 1027.99 1027.65 1027.30 1026.92 1026.63 1026.37 1026.09 1026.10 1025.96 1026.00 1026.13 1025.68 1025.49 1025.20 1025.23 1025.17 1025.22 1025.08 1024.49 1024.41 1024.39 1024.08 1023.42 1022.84 1022.34 1021.97 1021.34 1021.21 1021.15 1020.55 1020.77 1020.26 1020.54 1020.53 1020.39 1020.73 1021.03 1021.33 1021.69 1022.14 1022.78 1023.33
Wind_Speed
10 11 11 11 11 13 13 13 14 15 15 15 14 13 13 12 12 11 10 10 10 9 8 9 9 8 4 3 4 7 10 7 3 4 4 5 4 4 1 4 2 3 3 0 2 1 3
10 11 11 12 13 14 14 16 16 16 16 15 14 13 13 12 11 11 10 10 10 10 9 9 8 6 4 1 3 8 7 5 8 6 7 7 5 6 5 4 3 1 1 3 4 3 5
11 12 13 13 14 15 16 17 17 17 16 15 14 13 13 12 11 11 11 11 10 9 9 9 7 4 2 3 1 5 5 1 4 5 3 2 5 3 4 5 2 3 3 5 6 3 1
11 11 12 14 16 17 17 17 17 17 16 15 14 14 13 13 12 12 11 11 10 9 8 8 5 4 2 1 6 6 8 3 1 3 2 3 6 4 3 3 3 4 3 3 3 3 2
11 12 13 15 16 17 17 17 18 17 17 16 15 15 15 14 13 12 11 10 10 8 7 7 3 4 3 2 1 5 4 4 6 2 1 3 3 1 2 3 2 4 4 7 3 2 1
11 12 14 15 17 17 18 18 18 18 18 17 15 16 15 14 13 11 10 6 4 6 5 5 4 2 2 4 3 4 4 3 3 3 3 3 3 2 5 6 1 5 6 6 8 1 5
11 12 14 15 17 17 16 16 16 17 17 16 16 15 15 13 12 11 7 2 2 2 7 3 2 2 2 6 3 3 3 5 4 5 3 2 3 3 5 4 3 3 5 9 10 4 6
11 12 14 16 17 16 16 16 17 18 18 17 17 15 15 12 11 11 4 3 3 2 1 0 1 2 1 1 2 5 12 2 3 2 5 1 2 5 1 1 2 4 8 7 6 4 8
11 12 14 16 16 15 16 17 18 19 20 19 17 15 15 13 8 4 5 4 3 4 3 2 1 2 1 4 3 6 8 3 4 3 5 1 3 2 2 2 4 4 3 4 6 11 7
11 12 15 15 15 16 17 18 18 19 20 18 17 15 15 14 2 3 3 2 3 3 3 3 2 2 1 1 1 2 3 1 2 2 3 4 2 1 2 1 2 4 3 5 7 7 4
11 13 15 15 15 16 17 19 19 19 18 17 16 14 13 9 4 3 3 4 4 1 3 2 2 1 1 2 2 1 1 3 2 2 0 1 1 1 2 3 3 5 4 5 2 2 5
11 12 15 15 16 16 17 18 19 19 18 17 14 13 14 2 3 2 3 4 2 2 7 2 1 2 3 1 2 1 2 3 2 1 3 4 1 4 3 2 2 8 6 4 3 1 3
11 12 15 16 17 17 18 18 20 20 19 18 12 9 6 3 1 3 3 1 2 3 1 2 1 3 1 2 0 3 1 5 2 4 2 3 3 2 2 2 2 2 6 5 6 2 5
11 12 13 16 18 19 19 20 20 21 19 17 10 8 3 2 2 3 2 0 3 1 4 0 1 3 3 4 1 1 2 2 1 2 2 1 6 2 4 3 3 3 5 5 5 3 6
11 12 13 16 18 20 21 21 21 21 20 16 9 2 2 3 2 2 1 0 4 3 3 5 2 2 4 2 1 3 4 1 2 3 6 1 2 2 5 2 2 1 0 1 0 1 2
11 10 14 17 19 20 22 23 22 23 20 14 3 2 2 3 1 1 1 3 1 3 3 3 2 0 3 2 2 1 4 1 2 1 1 1 3 1 2 1 1 1 1 3 1 3 5
8 12 15 18 19 21 22 23 23 24 23 9 2 2 0 3 0 0 1 1 2 2 3 3 4 3 1 2 1 3 2 1 1 4 0 3 3 1 4 6 8 1 0 1 1 3 4
13 15 17 18 20 22 23 23 24 24 27 2 2 2 1 1 2 1 1 2 2 1 1 0 1 1 2 4 3 4 2 3 4 7 4 1 4 4 6 0 1 1 4 5 4 4 3
14 16 17 19 21 22 24 24 24 23 18 4 3 3 3 1 1 2 2 2 1 1 2 1 2 2 1 3 3 4 1 3 5 5 7 6 3 3 5 3 2 3 5 4 2 1 10
15 17 19 20 21 22 24 25 26 25 19 2 3 3 3 4 1 3 3 1 2 0 2 1 2 1 2 4 7 4 3 3 5 3 5 5 3 8 10 7 4 4 7 8 8 5 12
17 18 19 20 22 24 25 26 28 28 25 1 5 3 1 3 3 4 1 1 2 2 2 2 2 6 5 3 3 6 5 4 5 6 5 5 6 7 12 13 10 13 13 12 14 18 16
17 18 19 21 22 24 25 27 28 29 27 5 3 4 2 3 3 4 3 3 1 2 3 4 4 5 7 6 5 6 8 4 5 4 5 2 5 3 9 11 15 20 17 18 19 17 18
18 18 19 20 22 23 24 26 28 27 17 4 4 2 1 4 2 2 2 4 2 2 6 5 5 5 6 6 4 7 7 7 8 6 8 6 2 1 13 3 6 8 13 12 1 1 4
17 18 18 19 20 22 23 24 26 25 18 2 3 2 2 4 1 2 7 7 7 7 8 9 6 9 4 7 9 11 14 16 14 16 8 8 5 2 7 1 9 4 1 4 8 3 5
16 16 17 17 19 20 22 22 24 24 21 6 4 3 2 3 4 9 6 6 9 7 8 7 3 2 6 4 4 6 5 1 1 9 8 3 4 3 4 5 7 2 4 3 5 2 3
16 17 15 17 18 18 20 21 22 24 22 4 7 4 3 0 2 5 5 6 4 4 5 3 2 2 3 1 1 4 5 3 3 3 4 4 4 3 2 5 5 2 1 2 2 2 5
15 14 16 16 17 17 18 19 19 19 21 5 3 8 2 1 3 6 4 3 4 4 3 3 6 4 1 2 4 5 6 6 3 1 5 3 2 5 7 7 2 3 4 4 2 2 8
15 15 14 15 16 17 17 17 18 17 15 8 2 5 3 2 4 7 7 4 5 3 2 3 5 3 3 1 2 3 2 2 3 4 5 7 5 5 4 4 7 3 1 3 2 4 4
12 14 15 15 15 15 15 16 17 17 14 11 2 3 2 2 3 2 3 3 4 5 3 4 2 1 4 3 2 3 3 0 2 4 4 3 7 4 2 2 5 5 9 5 4 4 2
Wind_Direction
17 15 11 12 11 12 10 7 3 359 358 353 346 339 332 323 317 319 326 327 322 320 320 315 312 314 281 188 41 357 352 322 316 279 31 355 314 349 329 83 258 314 102 190 115 229 277
19 16 15 16 14 12 9 9 4 1 356 351 343 335 326 323 320 322 319 315 317 313 307 302 302 326 242 65 314 360 355 1 8 351 32 3 9 325 76 47 354 61 196 161 184 212 240
21 21 20 16 16 12 11 10 4 359 352 345 339 330 327 323 323 320 317 311 307 302 297 295 297 284 354 105 4 340 358 27 345 13 32 23 311 322 315 140 168 169 273 193 202 199 266
25 26 22 18 17 14 12 10 5 358 349 342 337 331 328 327 324 318 316 311 300 291 286 279 287 265 68 94 321 20 352 192 150 46 48 316 316 93 10 145 210 240 193 286 155 171 141
26 25 22 19 16 13 12 9 4 358 352 348 342 336 334 330 325 316 305 302 286 280 263 274 249 235 97 157 344 8 42 345 290 211 180 262 258 164 180 251 254 220 315 343 4 129 338
30 23 22 18 15 13 11 8 1 358 355 350 344 340 338 333 326 316 307 280 276 286 234 244 259 244 94 2 343 315 46 280 313 290 230 233 226 234 39 16 61 328 337 339 307 61 239
32 24 21 15 12 11 7 2 356 358 358 352 345 338 337 332 325 320 319 232 219 182 44 26 33 296 57 327 119 63 345 312 220 244 3 73 64 50 37 45 350 309 292 280 286 63 322
29 24 19 13 10 8 1 356 353 354 357 353 346 338 338 330 317 307 289 358 75 19 92 221 177 142 59 325 276 47 342 306 284 8 334 298 85 68 20 10 297 283 284 293 317 80 345
29 25 16 12 10 2 358 355 353 355 356 352 345 340 340 335 318 323 63 51 338 325 251 129 29 13 4 319 63 345 358 294 20 44 355 7 80 112 291 268 353 285 300 354 291 329 281
31 25 14 10 8 2 357 353 354 355 354 350 341 338 336 329 348 320 59 16 325 316 251 153 153 131 214 341 162 360 12 40 118 63 18 67 110 293 266 143 359 301 22 320 328 10 296
31 18 13 10 7 1 358 354 354 354 349 344 339 333 337 359 305 46 355 326 320 263 328 16 88 61 228 337 325 149 293 246 56 65 154 226 150 332 296 51 22 260 347 269 276 285 26
30 19 14 10 4 360 355 353 350 349 347 344 340 331 325 334 82 27 315 305 261 53 256 115 3 324 259 165 119 186 189 113 347 194 80 85 33 35 21 307 221 306 303 218 182 171 333
30 20 14 9 4 359 354 350 348 346 344 341 336 331 356 314 52 328 302 233 352 193 76 118 63 18 344 336 268 24 45 13 58 30 217 141 115 113 327 292 224 310 16 339 343 299 229
33 22 12 9 4 0 355 350 346 344 342 339 327 312 2 57 354 313 251 79 258 314 66 78 346 250 270 12 186 283 242 203 211 283 303 83 315 33 359 89 177 31 139 147 260 291 309
35 24 13 9 6 2 357 351 346 343 341 336 319 192 187 40 352 288 293 183 258 12 327 351 185 263 164 178 262 257 172 93 50 31 171 344 224 114 39 36 87 154 259 76 78 216 62
36 24 16 11 8 3 358 354 348 343 342 340 291 245 87 349 335 279 38 252 16 7 323 256 263 1 305 95 276 212 190 325 161 22 221 32 318 103 138 160 31 154 71 76 85 283 281
47 36 21 14 11 5 1 357 352 347 339 342 271 299 83 82 267 23 185 34 81 65 350 351 340 305 312 314 299 270 280 189 110 154 257 110 102 220 129 197 177 152 15 29 17 170 218
46 36 26 20 14 9 4 360 358 354 341 345 302 303 252 171 77 46 85 18 343 72 160 69 300 336 275 359 275 261 305 105 149 157 169 71 162 245 237 245 2 37 177 174 170 246 240
49 40 31 24 18 11 5 359 358 357 8 316 353 314 239 94 58 84 182 176 311 202 203 197 226 213 84 261 271 238 255 170 174 179 175 193 210 320 301 18 11 191 199 179 217 233 223
51 42 36 28 22 15 8 2 357 353 357 302 359 355 4 54 96 51 17 45 202 148 270 295 296 287 236 239 229 276 261 182 169 207 128 156 233 190 231 228 126 203 196 204 192 228 264
53 46 39 31 25 21 14 8 360 354 347 44 13 38 78 337 27 355 165 106 294 252 238 214 242 234 189 263 239 228 232 159 187 190 189 166 217 251 258 274 277 269 265 226 219 241 252
53 46 42 35 30 26 20 14 7 357 343 70 37 8 342 278 300 287 167 220 256 347 163 239 225 307 208 208 230 295 314 291 277 134 207 134 275 321 264 262 259 263 264 259 249 254 262
56 50 44 39 34 29 24 19 13 6 358 45 5 68 339 289 322 10 306 6 320 34 280 303 309 316 283 285 340 308 295 289 271 186 188 155 205 245 279 286 324 262 238 236 133 106 179
60 53 45 39 35 30 28 22 18 14 11 38 22 354 30 280 134 263 326 316 298 279 275 298 298 279 19 322 287 273 250 243 243 246 189 161 157 212 287 101 258 246 193 109 105 40 26
56 49 41 38 34 31 30 27 21 19 17 54 4 19 28 275 331 295 346 326 328 307 302 304 12 360 314 302 311 314 276 272 208 40 39 105 135 240 253 219 297 194 26 68 106 232 70
55 48 37 36 34 31 29 30 27 22 13 46 39 343 21 14 43 349 322 293 292 305 330 36 106 339 302 226 219 245 241 343 202 82 51 72 73 187 315 257 249 109 52 22 114 128 354
49 45 38 32 31 30 29 27 24 23 15 23 46 3 40 337 355 8 8 326 341 349 287 332 331 331 48 250 227 223 237 228 266 250 166 143 170 227 236 257 208 112 320 305 171 20 40
44 38 36 28 26 27 25 21 19 19 15 5 90 41 11 270 321 21 13 348 340 358 298 310 356 359 334 303 266 273 333 329 3 159 173 168 171 202 216 240 266 333 271 77 57 55 124
39 33 29 23 19 18 17 18 18 16 17 358 9 20 357 265 306 325 348 25 11 342 307 297 255 294 318 280 305 316 282 241 213 268 50 297 192 205 180 171 77 53 102 155 160 173 245